| time (UTC) | temp F | wind direction | speed MPH | gust MPH | rain 1hr in | rain 24hr in | rain mn in | humidity % | barometer mb |
| 20260504150405 | 69 | 200 | 9.0 | 18.0 | 0.00 | 0.00 | 0.00 | 34 | 1010.8 |
| 20260504140413 | 67 | 222 | 10.0 | 19.0 | 0.00 | 0.00 | 0.00 | 41 | 1010.8 |
| 20260504130419 | 65 | 229 | 10.0 | 20.0 | 0.00 | 0.00 | 0.00 | 44 | 1010.8 |
| 20260504110420 | 63 | 220 | 7.0 | 17.0 | 0.00 | 0.00 | 0.00 | 43 | 1010.8 |
| 20260504100409 | 63 | 195 | 8.0 | 11.0 | 0.00 | 0.00 | 0.00 | 42 | 1010.8 |
| 20260504081912 | 64 | 218 | 8.0 | 12.0 | 0.00 | 0.00 | 0.00 | 35 | 1011.8 |
| 20260504081415 | 64 | 174 | 6.0 | 10.0 | 0.00 | 0.00 | 0.00 | 35 | 1011.8 |
| 20260504080908 | 64 | 227 | 7.0 | 12.0 | 0.00 | 0.00 | 0.00 | 34 | 1011.8 |
| 20260504080410 | 64 | 182 | 7.0 | 12.0 | 0.00 | 0.00 | 0.00 | 34 | 1011.8 |
| 20260504070410 | 66 | 195 | 8.0 | 13.0 | 0.00 | 0.00 | 0.00 | 25 | 1011.8 |
| 20260504045911 | 68 | 222 | 5.0 | 10.0 | 0.00 | 0.00 | 0.00 | 23 | 1012.8 |
| 20260504045410 | 68 | 194 | 8.0 | 12.0 | 0.00 | 0.00 | 0.00 | 22 | 1012.8 |
| 20260504044912 | 68 | 245 | 7.0 | 13.0 | 0.00 | 0.00 | 0.00 | 22 | 1013.8 |
| 20260504044413 | 68 | 177 | 6.0 | 11.0 | 0.00 | 0.00 | 0.00 | 22 | 1013.8 |
| 20260504043913 | 69 | 205 | 7.0 | 10.0 | 0.00 | 0.00 | 0.00 | 22 | 1013.8 |
| 20260504042414 | 69 | 222 | 6.0 | 12.0 | 0.00 | 0.00 | 0.00 | 22 | 1013.8 |
| 20260504041917 | 69 | 208 | 6.0 | 10.0 | 0.00 | 0.00 | 0.00 | 22 | 1013.8 |
| 20260504041418 | 69 | 149 | 6.0 | 8.0 | 0.00 | 0.00 | 0.00 | 22 | 1013.8 |
| 20260504040917 | 69 | 160 | 5.0 | 11.0 | 0.00 | 0.00 | 0.00 | 22 | 1013.8 |
| 20260504040419 | 69 | 244 | 6.0 | 10.0 | 0.00 | 0.00 | 0.00 | 22 | 1013.8 |
| 20260504034413 | 69 | 197 | 5.0 | 9.0 | 0.00 | 0.00 | 0.00 | 19 | 1013.8 |
| 20260504033912 | 69 | 196 | 6.0 | 11.0 | 0.00 | 0.00 | 0.00 | 19 | 1013.8 |
| 20260504033414 | 69 | 220 | 5.0 | 11.0 | 0.00 | 0.00 | 0.00 | 19 | 1013.8 |
| 20260504032915 | 69 | 115 | 5.0 | 8.0 | 0.00 | 0.00 | 0.00 | 19 | 1013.8 |
| 20260504031917 | 70 | 201 | 5.0 | 10.0 | 0.00 | 0.00 | 0.00 | 19 | 1013.8 |
| 20260504031418 | 70 | 155 | 6.0 | 10.0 | 0.00 | 0.00 | 0.00 | 19 | 1013.8 |
| 20260504030912 | 70 | 181 | 5.0 | 9.0 | 0.00 | 0.00 | 0.00 | 19 | 1013.8 |
| 20260504030414 | 70 | 128 | 6.0 | 8.0 | 0.00 | 0.00 | 0.00 | 19 | 1013.8 |
| 20260504025916 | 70 | 218 | 6.0 | 11.0 | 0.00 | 0.00 | 0.00 | 19 | 1013.8 |
| 20260504025414 | 70 | 124 | 5.0 | 8.0 | 0.00 | 0.00 | 0.00 | 19 | 1013.8 |
| 20260504024917 | 71 | 172 | 6.0 | 10.0 | 0.00 | 0.00 | 0.00 | 16 | 1012.8 |
| 20260504023912 | 71 | 135 | 5.0 | 9.0 | 0.00 | 0.00 | 0.00 | 16 | 1012.8 |
| 20260504022915 | 71 | 193 | 6.0 | 9.0 | 0.00 | 0.00 | 0.00 | 16 | 1012.8 |
| 20260504021418 | 72 | 139 | 5.0 | 11.0 | 0.00 | 0.00 | 0.00 | 16 | 1012.8 |
| 20260504020916 | 72 | 229 | 6.0 | 11.0 | 0.00 | 0.00 | 0.00 | 16 | 1012.8 |
| 20260504015920 | 72 | 195 | 6.0 | 9.0 | 0.00 | 0.00 | 0.00 | 16 | 1012.8 |
| 20260504014921 | 73 | 235 | 5.0 | 8.0 | 0.00 | 0.00 | 0.00 | 16 | 1012.8 |
| 20260504014422 | 73 | 223 | 5.0 | 9.0 | 0.00 | 0.00 | 0.00 | 16 | 1012.8 |
| 20260504013912 | 73 | 213 | 6.0 | 10.0 | 0.00 | 0.00 | 0.00 | 16 | 1012.8 |
| 20260504013415 | 73 | 236 | 8.0 | 10.0 | 0.00 | 0.00 | 0.00 | 16 | 1012.8 |
| 20260504012916 | 74 | 210 | 6.0 | 10.0 | 0.00 | 0.00 | 0.00 | 16 | 1012.8 |
| 20260504011917 | 74 | 138 | 5.0 | 12.0 | 0.00 | 0.00 | 0.00 | 16 | 1012.8 |
| 20260504005920 | 75 | 217 | 5.0 | 12.0 | 0.00 | 0.00 | 0.00 | 15 | 1012.8 |
| 20260504004418 | 76 | 226 | 7.0 | 11.0 | 0.00 | 0.00 | 0.00 | 15 | 1012.8 |
| 20260504002920 | 77 | 146 | 7.0 | 10.0 | 0.00 | 0.00 | 0.00 | 15 | 1012.8 |
| 20260504001921 | 78 | 161 | 5.0 | 10.0 | 0.00 | 0.00 | 0.00 | 15 | 1012.8 |
| 20260504001423 | 78 | 200 | 6.0 | 12.0 | 0.00 | 0.00 | 0.00 | 13 | 1012.8 |
| 20260503235911 | 78 | 162 | 10.0 | 13.0 | 0.00 | 0.00 | 0.00 | 12 | 1012.8 |
| 20260503235409 | 79 | 134 | 8.0 | 12.0 | 0.00 | 0.00 | 0.00 | 15 | 1012.8 |
| 20260503234409 | 79 | 200 | 7.0 | 13.0 | 0.00 | 0.00 | 0.00 | 15 | 1012.8 |
| 20260503233907 | 79 | 121 | 9.0 | 14.0 | 0.00 | 0.00 | 0.00 | 15 | 1012.8 |
| 20260503232409 | 79 | 221 | 7.0 | 11.0 | 0.00 | 0.00 | 0.00 | 15 | 1012.8 |
| 20260503231413 | 79 | 202 | 8.0 | 12.0 | 0.00 | 0.00 | 0.00 | 15 | 1012.8 |
| 20260503230907 | 80 | 233 | 6.0 | 13.0 | 0.00 | 0.00 | 0.00 | 14 | 1012.8 |
| 20260503225911 | 80 | 148 | 7.0 | 14.0 | 0.00 | 0.00 | 0.00 | 14 | 1013.8 |
| 20260503225405 | 80 | 182 | 10.0 | 14.0 | 0.00 | 0.00 | 0.00 | 14 | 1013.8 |
| 20260503223908 | 80 | 149 | 8.0 | 14.0 | 0.00 | 0.00 | 0.00 | 14 | 1013.8 |
| 20260503223410 | 80 | 225 | 9.0 | 12.0 | 0.00 | 0.00 | 0.00 | 12 | 1013.8 |
| 20260503222906 | 80 | 200 | 6.0 | 14.0 | 0.00 | 0.00 | 0.00 | 12 | 1013.8 |
| 20260503222405 | 79 | 215 | 13.0 | 16.0 | 0.00 | 0.00 | 0.00 | 12 | 1013.8 |
| 20260503220902 | 79 | 218 | 8.0 | 11.0 | 0.00 | 0.00 | 0.00 | 14 | 1013.8 |
| 20260503215906 | 80 | 156 | 7.0 | 15.0 | 0.00 | 0.00 | 0.00 | 14 | 1013.8 |
| 20260503215405 | 80 | 201 | 8.0 | 14.0 | 0.00 | 0.00 | 0.00 | 14 | 1013.8 |
| 20260503214409 | 80 | 180 | 8.0 | 12.0 | 0.00 | 0.00 | 0.00 | 14 | 1014.8 |
| 20260503213903 | 79 | 129 | 9.0 | 14.0 | 0.00 | 0.00 | 0.00 | 14 | 1014.8 |
| 20260503213401 | 80 | 198 | 10.0 | 16.0 | 0.00 | 0.00 | 0.00 | 14 | 1014.8 |
| 20260503212902 | 79 | 188 | 7.0 | 16.0 | 0.00 | 0.00 | 0.00 | 12 | 1014.8 |
| 20260503211359 | 81 | 176 | 5.0 | 10.0 | 0.00 | 0.00 | 0.00 | 14 | 1014.8 |
| 20260503210359 | 81 | 216 | 8.0 | 16.0 | 0.00 | 0.00 | 0.00 | 14 | 1014.8 |
| 20260503205901 | 79 | 222 | 12.0 | 13.0 | 0.00 | 0.00 | 0.00 | 15 | 1014.8 |
| 20260503204901 | 79 | 211 | 12.0 | 14.0 | 0.00 | 0.00 | 0.00 | 15 | 1014.8 |
| 20260503204403 | 79 | 188 | 8.0 | 14.0 | 0.00 | 0.00 | 0.00 | 15 | 1014.8 |
| 20260503203358 | 81 | 202 | 8.0 | 12.0 | 0.00 | 0.00 | 0.00 | 14 | 1015.8 |
| 20260503202900 | 80 | 204 | 7.0 | 14.0 | 0.00 | 0.00 | 0.00 | 14 | 1015.8 |
| 20260503201856 | 81 | 158 | 5.0 | 13.0 | 0.00 | 0.00 | 0.00 | 14 | 1015.8 |
| 20260503201352 | 80 | 104 | 9.0 | 14.0 | 0.00 | 0.00 | 0.00 | 14 | 1015.8 |
| 20260503200352 | 80 | 201 | 8.0 | 12.0 | 0.00 | 0.00 | 0.00 | 14 | 1015.8 |
| 20260503194854 | 79 | 217 | 7.0 | 18.0 | 0.00 | 0.00 | 0.00 | 15 | 1015.8 |
| 20260503194356 | 79 | 169 | 11.0 | 15.0 | 0.00 | 0.00 | 0.00 | 14 | 1015.8 |
| 20260503193356 | 79 | 212 | 5.0 | 12.0 | 0.00 | 0.00 | 0.00 | 15 | 1016.8 |
| 20260503192858 | 80 | 131 | 7.0 | 15.0 | 0.00 | 0.00 | 0.00 | 14 | 1016.8 |
| 20260503192357 | 80 | 248 | 4.0 | 9.0 | 0.00 | 0.00 | 0.00 | 14 | 1016.8 |
| 20260503191858 | 80 | 198 | 6.0 | 12.0 | 0.00 | 0.00 | 0.00 | 14 | 1016.8 |
| 20260503191355 | 78 | 209 | 10.0 | 19.0 | 0.00 | 0.00 | 0.00 | 15 | 1016.8 |
| 20260503190849 | 79 | 204 | 9.0 | 14.0 | 0.00 | 0.00 | 0.00 | 15 | 1016.8 |
| 20260503185853 | 79 | 181 | 8.0 | 13.0 | 0.00 | 0.00 | 0.00 | 14 | 1016.8 |
| 20260503185341 | 81 | 182 | 5.0 | 10.0 | 0.00 | 0.00 | 0.00 | 14 | 1016.8 |
| 20260503184838 | 79 | 146 | 5.0 | 8.0 | 0.00 | 0.00 | 0.00 | 15 | 1016.8 |
| 20260503184340 | 80 | 93 | 6.0 | 10.0 | 0.00 | 0.00 | 0.00 | 14 | 1016.8 |
| 20260503183839 | 79 | 169 | 5.0 | 15.0 | 0.00 | 0.00 | 0.00 | 14 | 1016.8 |
| 20260503183340 | 78 | 239 | 7.0 | 14.0 | 0.00 | 0.00 | 0.00 | 15 | 1016.8 |
| 20260503182843 | 78 | 171 | 5.0 | 14.0 | 0.00 | 0.00 | 0.00 | 15 | 1016.8 |
| 20260503182341 | 78 | 176 | 8.0 | 14.0 | 0.00 | 0.00 | 0.00 | 15 | 1016.8 |
| 20260503181838 | 78 | 134 | 7.0 | 18.0 | 0.00 | 0.00 | 0.00 | 15 | 1017.8 |
| 20260503180838 | 77 | 221 | 9.0 | 15.0 | 0.00 | 0.00 | 0.00 | 15 | 1017.8 |
| 20260503180340 | 78 | 210 | 5.0 | 13.0 | 0.00 | 0.00 | 0.00 | 15 | 1017.8 |
| 20260503175837 | 77 | 241 | 9.0 | 8.0 | 0.00 | 0.00 | 0.00 | 15 | 1017.8 |
| 20260503174823 | 78 | 144 | 5.0 | 13.0 | 0.00 | 0.00 | 0.00 | 18 | 1017.8 |
| 20260503174325 | 76 | 207 | 7.0 | 11.0 | 0.00 | 0.00 | 0.00 | 18 | 1017.8 |
| 20260503173326 | 76 | 220 | 6.0 | 15.0 | 0.00 | 0.00 | 0.00 | 18 | 1017.8 |
| 20260503172828 | 76 | 166 | 7.0 | 11.0 | 0.00 | 0.00 | 0.00 | 18 | 1017.8 |
| 20260503172326 | 77 | 222 | 7.0 | 12.0 | 0.00 | 0.00 | 0.00 | 18 | 1017.8 |
| 20260503171828 | 76 | 163 | 7.0 | 10.0 | 0.00 | 0.00 | 0.00 | 18 | 1018.8 |
| 20260503171330 | 76 | 198 | 7.0 | 15.0 | 0.00 | 0.00 | 0.00 | 18 | 1018.8 |
| 20260503170828 | 75 | 230 | 7.0 | 16.0 | 0.00 | 0.00 | 0.00 | 20 | 1018.8 |
| 20260503170330 | 74 | 189 | 10.0 | 16.0 | 0.00 | 0.00 | 0.00 | 21 | 1018.8 |